User: anonymous   Login
Location: Unspecified
(0.0000°N, 0.0000°E)
Time: 12:39:25
(UTC+00:00)
Language:

RUBIN 2 - Orbit

View from above orbital plane
View from above orbital plane
View from above satellite
View from above satellite

Ground track
Ground track

The orbit data is extracted from the following two-line orbital elements,

1 27605U 02058A   18020.87260109 -.00000060 +00000-0 +12117-4 0  9992
2 27605 064.5550 163.0348 0047947 005.7893 354.3753 14.74960649811522
Epoch (UTC): 20 January 2018 20:56:32
Eccentricity: 0.0047947
inclination: 64.5550°
perigee height: 611 km
apogee height: 679 km
right ascension of ascending node: 163.0348°
argument of perigee: 5.7893°
revolutions per day: 14.74960649
mean anomaly at epoch: 354.3753°
orbit number at epoch: 81152

The dashed part of the orbit path shows where the satellite is in the earth's shadow,  

DLR